| time (UTC) | temp F | wind direction | speed MPH | gust MPH | rain 1hr in | rain 24hr in | rain mn in | humidity % | barometer mb |
| 20260504221555 | 57 | 292 | 2.0 | 4.0 | 0.00 | 0.00 | 0.00 | 79 | 1009.7 |
| 20260504220553 | 57 | 270 | 3.0 | 4.0 | 0.00 | 0.00 | 0.00 | 78 | 1009.5 |
| 20260504215542 | 58 | 292 | 2.0 | 4.0 | 0.00 | 0.00 | 0.00 | 77 | 1009.6 |
| 20260504214537 | 58 | 292 | 2.0 | 4.0 | 0.00 | 0.00 | 0.00 | 76 | 1009.4 |
| 20260504213530 | 59 | 292 | 2.0 | 4.0 | 0.00 | 0.00 | 0.00 | 75 | 1009.3 |
| 20260504212524 | 59 | 292 | 2.0 | 4.0 | 0.00 | 0.00 | 0.00 | 75 | 1009.5 |
| 20260504211521 | 60 | 292 | 2.0 | 6.0 | 0.00 | 0.00 | 0.00 | 74 | 1009.5 |
| 20260504210511 | 60 | 270 | 4.0 | 7.0 | 0.00 | 0.00 | 0.00 | 74 | 1009.5 |
| 20260504205506 | 60 | 292 | 4.0 | 7.0 | 0.00 | 0.00 | 0.00 | 73 | 1009.5 |
| 20260504204459 | 60 | 270 | 2.0 | 6.0 | 0.00 | 0.00 | 0.00 | 74 | 1009.7 |
| 20260504203455 | 60 | 270 | 4.0 | 8.0 | 0.00 | 0.00 | 0.00 | 75 | 1009.8 |
| 20260504202449 | 60 | 247 | 3.0 | 6.0 | 0.00 | 0.00 | 0.00 | 76 | 1009.5 |
| 20260504201441 | 60 | 270 | 2.0 | 4.0 | 0.00 | 0.00 | 0.00 | 76 | 1009.5 |
| 20260504200435 | 60 | 315 | 2.0 | 4.0 | 0.00 | 0.00 | 0.00 | 75 | 1009.5 |
| 20260504195429 | 60 | 270 | 2.0 | 4.0 | 0.00 | 0.00 | 0.00 | 74 | 1009.5 |
| 20260504194422 | 61 | 225 | 0.0 | 6.0 | 0.00 | 0.00 | 0.00 | 75 | 1009.1 |
| 20260504193419 | 61 | 270 | 2.0 | 4.0 | 0.00 | 0.00 | 0.00 | 76 | 1009.6 |
| 20260504192410 | 61 | 292 | 1.0 | 4.0 | 0.00 | 0.00 | 0.00 | 77 | 1009.6 |
| 20260504191403 | 61 | 270 | 2.0 | 4.0 | 0.00 | 0.00 | 0.00 | 76 | 1009.6 |
| 20260504190358 | 61 | 270 | 0.0 | 4.0 | 0.00 | 0.00 | 0.00 | 76 | 1009.8 |
| 20260504185351 | 62 | 270 | 3.0 | 4.0 | 0.00 | 0.00 | 0.00 | 75 | 1009.9 |
| 20260504184348 | 62 | 270 | 1.0 | 4.0 | 0.00 | 0.00 | 0.00 | 76 | 1009.5 |
| 20260504183339 | 62 | 270 | 0.0 | 2.0 | 0.00 | 0.00 | 0.00 | 76 | 1008.9 |
| 20260504182333 | 63 | 202 | 0.0 | 4.0 | 0.00 | 0.00 | 0.00 | 74 | 1009.3 |
| 20260504181326 | 63 | 202 | 0.0 | 4.0 | 0.00 | 0.00 | 0.00 | 75 | 1009.0 |
| 20260504180320 | 63 | 180 | 2.0 | 6.0 | 0.00 | 0.00 | 0.00 | 73 | 1008.9 |
| 20260504175316 | 64 | 225 | 3.0 | 7.0 | 0.00 | 0.00 | 0.00 | 71 | 1009.1 |
| 20260504174308 | 64 | 202 | 4.0 | 8.0 | 0.00 | 0.00 | 0.00 | 71 | 1008.6 |
| 20260504173302 | 64 | 157 | 4.0 | 9.0 | 0.00 | 0.00 | 0.00 | 70 | 1008.9 |
| 20260504172256 | 65 | 247 | 3.0 | 11.0 | 0.00 | 0.00 | 0.00 | 69 | 1008.5 |
| 20260504171249 | 66 | 202 | 5.0 | 11.0 | 0.00 | 0.00 | 0.00 | 68 | 1008.4 |
| 20260504170248 | 67 | 247 | 5.0 | 11.0 | 0.00 | 0.00 | 0.00 | 66 | 1008.4 |
| 20260504160207 | 71 | 270 | 4.0 | 9.0 | 0.00 | 0.00 | 0.00 | 58 | 1007.8 |
| 20260504151135 | 73 | 157 | 4.0 | 13.0 | 0.00 | 0.00 | 0.00 | 55 | 1007.7 |
| 20260504150129 | 74 | 247 | 6.0 | 14.0 | 0.00 | 0.00 | 0.00 | 53 | 1007.5 |
| 20260504141057 | 74 | 225 | 4.0 | 9.0 | 0.00 | 0.00 | 0.00 | 51 | 1007.3 |
| 20260504081721 | 77 | 337 | 11.0 | 18.0 | 0.00 | 0.00 | 0.00 | 38 | 1008.6 |
| 20260504080715 | 76 | 270 | 7.0 | 16.0 | 0.00 | 0.00 | 0.00 | 37 | 1008.4 |
| 20260504050523 | 63 | 0 | 2.0 | 7.0 | 0.00 | 0.00 | 0.00 | 53 | 1009.0 |
| 20260504045516 | 62 | 45 | 1.0 | 4.0 | 0.00 | 0.00 | 0.00 | 54 | 1009.2 |
| 20260504044511 | 60 | 247 | 1.0 | 4.0 | 0.00 | 0.00 | 0.00 | 55 | 1009.1 |
| 20260504043504 | 59 | 157 | 0.0 | 0.0 | 0.00 | 0.00 | 0.00 | 63 | 1009.3 |
| 20260504042502 | 58 | 202 | 0.0 | 0.0 | 0.00 | 0.00 | 0.00 | 67 | 1009.2 |
| 20260504041452 | 56 | 180 | 0.0 | 0.0 | 0.00 | 0.00 | 0.00 | 66 | 1009.3 |
| 20260504040446 | 54 | 67 | 0.0 | 0.0 | 0.00 | 0.00 | 0.00 | 74 | 1009.4 |
| 20260504035441 | 53 | 67 | 0.0 | 0.0 | 0.00 | 0.00 | 0.00 | 77 | 1009.4 |
| 20260504034434 | 51 | 67 | 0.0 | 0.0 | 0.00 | 0.00 | 0.00 | 79 | 1009.3 |
| 20260504033431 | 49 | 67 | 0.0 | 0.0 | 0.00 | 0.00 | 0.00 | 80 | 1009.2 |
| 20260504032421 | 49 | 67 | 0.0 | 0.0 | 0.00 | 0.00 | 0.00 | 82 | 1009.3 |
| 20260504031415 | 47 | 67 | 0.0 | 0.0 | 0.00 | 0.00 | 0.00 | 80 | 1009.3 |
| 20260504030408 | 46 | 67 | 0.0 | 0.0 | 0.00 | 0.00 | 0.00 | 82 | 1009.4 |
| 20260504025403 | 46 | 337 | 0.0 | 0.0 | 0.00 | 0.00 | 0.00 | 83 | 1009.1 |
| 20260504024359 | 46 | 315 | 0.0 | 0.0 | 0.00 | 0.00 | 0.00 | 85 | 1009.2 |
| 20260504023350 | 46 | 247 | 0.0 | 0.0 | 0.00 | 0.00 | 0.00 | 85 | 1009.2 |
| 20260504022344 | 45 | 337 | 0.0 | 0.0 | 0.00 | 0.00 | 0.00 | 85 | 1009.2 |
| 20260504021338 | 45 | 315 | 0.0 | 0.0 | 0.00 | 0.00 | 0.00 | 86 | 1009.3 |
| 20260504020331 | 45 | 315 | 0.0 | 0.0 | 0.00 | 0.00 | 0.00 | 86 | 1009.3 |
| 20260504015328 | 45 | 292 | 0.0 | 0.0 | 0.00 | 0.00 | 0.00 | 87 | 1009.3 |
| 20260504014320 | 46 | 315 | 0.0 | 0.0 | 0.00 | 0.00 | 0.00 | 87 | 1009.3 |
| 20260504013313 | 46 | 337 | 0.0 | 0.0 | 0.00 | 0.00 | 0.00 | 87 | 1009.6 |
| 20260504012306 | 45 | 315 | 0.0 | 0.0 | 0.00 | 0.00 | 0.00 | 85 | 1009.5 |
| 20260504011300 | 45 | 315 | 0.0 | 0.0 | 0.00 | 0.00 | 0.00 | 84 | 1009.4 |
| 20260504010258 | 46 | 315 | 0.0 | 0.0 | 0.00 | 0.00 | 0.00 | 83 | 1009.7 |
| 20260504005249 | 46 | 315 | 0.0 | 0.0 | 0.00 | 0.00 | 0.00 | 82 | 1009.6 |
| 20260504004242 | 46 | 315 | 0.0 | 0.0 | 0.00 | 0.00 | 0.00 | 82 | 1009.5 |
| 20260504003236 | 46 | 315 | 0.0 | 0.0 | 0.00 | 0.00 | 0.00 | 82 | 1009.7 |
| 20260504002229 | 47 | 315 | 0.0 | 0.0 | 0.00 | 0.00 | 0.00 | 81 | 1009.8 |
| 20260504001226 | 47 | 315 | 0.0 | 0.0 | 0.00 | 0.00 | 0.00 | 80 | 1009.7 |
| 20260504000219 | 47 | 315 | 0.0 | 0.0 | 0.00 | 0.00 | 0.00 | 81 | 1009.9 |
| 20260503235211 | 47 | 315 | 0.0 | 0.0 | 0.00 | 0.00 | 0.00 | 80 | 1010.1 |
| 20260503234204 | 48 | 315 | 0.0 | 0.0 | 0.00 | 0.00 | 0.00 | 79 | 1009.9 |
| 20260503233158 | 48 | 315 | 0.0 | 0.0 | 0.00 | 0.00 | 0.00 | 77 | 1010.0 |
| 20260503232157 | 48 | 315 | 0.0 | 0.0 | 0.00 | 0.00 | 0.00 | 78 | 1010.0 |
| 20260503231147 | 49 | 315 | 0.0 | 0.0 | 0.00 | 0.00 | 0.00 | 77 | 1010.0 |
| 20260503230140 | 49 | 315 | 0.0 | 0.0 | 0.00 | 0.00 | 0.00 | 77 | 1010.1 |
| 20260503225133 | 49 | 315 | 0.0 | 0.0 | 0.00 | 0.00 | 0.00 | 76 | 1010.2 |
| 20260503224128 | 49 | 315 | 0.0 | 0.0 | 0.00 | 0.00 | 0.00 | 76 | 1010.3 |
| 20260503223125 | 50 | 315 | 0.0 | 0.0 | 0.00 | 0.00 | 0.00 | 75 | 1010.3 |